Simultaneous Nadir Overpasses (SNOs) Predictions

Prediction of SNOs near US between AQUA and NPP Satellite Orbit:

Table of predicted SNOs near US for the next 10.0 days since TLE Epoch: 10/14/2016
Index Date (AQUA) Time (AQUA) AQUA Lat,Lon Date (NPP) Time (NPP) NPP Lat,Lon Distance(km) Time Diff (sec)
1 10/15/2016 07:18:18 49.94, -75.98 10/15/2016 07:20:47 50.39, -78.19 165.09 149
2 10/15/2016 08:57:12 49.88,-100.72 10/15/2016 09:02:16 50.44,-103.54 209.92 304
3 10/17/2016 18:16:27 49.95, -80.17 10/17/2016 18:11:05 49.67, -81.72 115.16 322
4 10/17/2016 19:55:20 49.94,-104.89 10/17/2016 19:52:33 49.56,-107.04 160.45 167
5 10/17/2016 21:30:30 36.65,-124.98 10/17/2016 21:30:12 36.18,-127.56 235.98 18
6 10/20/2016 09:22:26 25.75,-112.87 10/20/2016 09:15:41 25.86,-113.30 44.55 405
7 10/23/2016 06:29:48 46.33, -65.04 10/23/2016 06:31:07 46.72, -67.09 162.97 79
8 10/23/2016 08:07:41 49.89, -88.35 10/23/2016 08:11:33 50.41, -90.90 190.47 232
9 10/23/2016 09:46:34 49.89,-113.07 10/23/2016 09:53:01 50.52,-116.22 234.93 387




NCC Satellite Simultaneous Nadir Overpasses (SNOs) Prediction Service
